����,���ϕ���(m/s),���ϕ���,�ő�u�ԕ���(m/s),�ő啗��������,�C��(��),���x(%),10���Ԉړ��ώZ�J��(mm),1���Ԉړ��ώZ�J��(mm),���J��(mm),�݌v�J��(mm)
2022-05-02T00:00:00+09:00,0.6,���쓌,0.9,���쓌,7.2,93.8,0,0,6.5,6.5
2022-05-02T00:01:00+09:00,0.6,���쓌,1,���쓌,7.1,93.7,0,0,0,6.5
2022-05-02T00:02:00+09:00,0.6,���쓌,1.1,���쓌,7,93.5,0,0,0,6.5
2022-05-02T00:03:00+09:00,0.6,���쓌,1.1,���쓌,7.1,93.9,0,0,0,6.5
2022-05-02T00:04:00+09:00,0.6,���쓌,1.1,���쓌,7.1,94.1,0,0,0,6.5
2022-05-02T00:05:00+09:00,0.6,���쓌,1.1,���쓌,7,93.6,0,0,0,6.5
2022-05-02T00:06:00+09:00,0.6,���쓌,1.1,���쓌,6.9,93.4,0,0,0,6.5
2022-05-02T00:07:00+09:00,0.6,���쓌,1.1,���쓌,7,93.6,0,0,0,6.5
2022-05-02T00:08:00+09:00,0.6,���쓌,1.1,���쓌,7,93.7,0,0,0,6.5
2022-05-02T00:09:00+09:00,0.6,���쓌,1.1,���쓌,7,94,0,0,0,6.5
2022-05-02T00:10:00+09:00,0.5,���쓌,1.1,���쓌,7,93.7,0,0,0,6.5
2022-05-02T00:11:00+09:00,0.5,���쓌,1.1,���쓌,6.9,93.7,0,0,0,6.5
2022-05-02T00:12:00+09:00,0.5,��,1.1,���k��,6.9,93.5,0,0,0,6.5
2022-05-02T00:13:00+09:00,0.5,��,1.1,���k��,6.8,93.6,0,0,0,6.5
2022-05-02T00:14:00+09:00,0.5,��,1.1,���k��,6.8,93.7,0,0,0,6.5
2022-05-02T00:15:00+09:00,0.5,��,1.1,���k��,6.7,93.4,0,0,0,6.5
2022-05-02T00:16:00+09:00,0.5,��,1.1,���k��,6.7,93.3,0,0,0,6.5
2022-05-02T00:17:00+09:00,0.5,��,1.2,���쓌,6.7,93.5,0,0,0,6.5
2022-05-02T00:18:00+09:00,0.6,��,1.2,���쓌,6.7,93.8,0,0,0,6.5
2022-05-02T00:19:00+09:00,0.6,��,1.2,���쓌,6.8,94,0,0,0,6.5
2022-05-02T00:20:00+09:00,0.6,��,1.2,���쓌,6.8,94.1,0,0,0,6.5
2022-05-02T00:21:00+09:00,0.7,��,1.2,���쓌,6.7,93.8,0,0,0,6.5
2022-05-02T00:22:00+09:00,0.7,���쓌,1.2,���쓌,6.7,93.8,0,0,0,6.5
2022-05-02T00:23:00+09:00,0.7,���쓌,1.2,���쓌,6.7,93.8,0,0,0,6.5
2022-05-02T00:24:00+09:00,0.8,���쓌,1.2,���쓌,6.6,93.8,0,0,0,6.5
2022-05-02T00:25:00+09:00,0.8,���쓌,1.3,���쓌,6.6,93.8,0,0,0,6.5
2022-05-02T00:26:00+09:00,0.9,���쓌,1.3,���쓌,6.6,93.9,0,0,0,6.5
2022-05-02T00:27:00+09:00,0.9,���쓌,1.3,���쓌,6.6,94,0,0,0,6.5
2022-05-02T00:28:00+09:00,0.9,���쓌,1.4,���쓌,6.7,94.3,0,0,0,6.5
2022-05-02T00:29:00+09:00,0.9,���쓌,2,���쓌,6.6,94,0,0,0,6.5
2022-05-02T00:30:00+09:00,1,���쓌,2,���쓌,6.6,93.9,0,0,0,6.5
2022-05-02T00:31:00+09:00,1.1,���쓌,2,���쓌,6.5,93.9,0,0,0,6.5
2022-05-02T00:32:00+09:00,1.1,���쓌,2,���쓌,6.5,94,0,0,0,6.5
2022-05-02T00:33:00+09:00,1.1,���쓌,2,���쓌,6.5,94,0,0,0,6.5
2022-05-02T00:34:00+09:00,1.1,���쓌,2,���쓌,6.6,94.2,0,0,0,6.5
2022-05-02T00:35:00+09:00,1.1,���쓌,2,���쓌,6.6,94.2,0,0,0,6.5
2022-05-02T00:36:00+09:00,1.1,���쓌,2,���쓌,6.6,94.3,0,0,0,6.5
2022-05-02T00:37:00+09:00,1.1,���쓌,2,���쓌,6.5,94.3,0,0,0,6.5
2022-05-02T00:38:00+09:00,1.1,���쓌,2,���쓌,6.6,94.2,0,0,0,6.5
2022-05-02T00:39:00+09:00,1,�쓌,1.9,���쓌,6.7,94.8,0,0,0,6.5
2022-05-02T00:40:00+09:00,0.9,�쓌,1.3,���쓌,6.7,94.5,0,0,0,6.5
2022-05-02T00:41:00+09:00,0.9,�쓌,1.3,���쓌,6.7,94.4,0,0,0,6.5
2022-05-02T00:42:00+09:00,0.8,�쓌,1.3,���쓌,6.6,94.4,0,0,0,6.5
2022-05-02T00:43:00+09:00,0.8,�쓌,1.3,���쓌,6.6,94.2,0,0,0,6.5
2022-05-02T00:44:00+09:00,0.7,���쓌,1.3,���쓌,6.6,94.2,0,0,0,6.5
2022-05-02T00:45:00+09:00,0.6,���쓌,1.3,���쓌,6.6,94.4,0,0,0,6.5
2022-05-02T00:46:00+09:00,0.5,���쓌,1.1,���쓌,6.5,94.2,0,0,0,6.5
2022-05-02T00:47:00+09:00,0.5,���쓌,1,�쓌,6.5,94,0,0,0,6.5
2022-05-02T00:48:00+09:00,0.5,���쓌,1,�쓌,6.5,94.2,0,0,0,6.5
2022-05-02T00:49:00+09:00,0.5,��,1,�쓌,6.4,94.1,0,0,0,6.5
2022-05-02T00:50:00+09:00,0.4,��,1,���k��,6.5,94.2,0,0,0,6.5
2022-05-02T00:51:00+09:00,0.4,��,1,���k��,6.5,94.6,0,0,0,6.5
2022-05-02T00:52:00+09:00,0.4,��,1,���k��,6.4,94.2,0,0,0,6.5
2022-05-02T00:53:00+09:00,0.4,��,1,���k��,6.4,94.1,0,0,0,6.5
2022-05-02T00:54:00+09:00,0.4,���k��,1,���k��,6.5,94.6,0,0,0,6.5
2022-05-02T00:55:00+09:00,0.4,��,1,���k��,6.5,94.8,0,0,0,6.5
2022-05-02T00:56:00+09:00,0.4,��,1,���k��,6.6,94.8,0,0,0,6.5
2022-05-02T00:57:00+09:00,0.4,��,1,���k��,6.5,94.5,0,0,0,6.5
2022-05-02T00:58:00+09:00,0.4,��,0.8,��쓌,6.5,94.6,0,0,0,6.5
2022-05-02T00:59:00+09:00,0.4,���쓌,0.8,��쓌,6.6,94.6,0,0,0,6.5
2022-05-02T01:00:00+09:00,0.4,���쓌,0.8,��쓌,6.5,94.4,0,0,0,6.5
2022-05-02T01:01:00+09:00,0.5,���쓌,0.8,��쓌,6.5,94.5,0,0,0,6.5
2022-05-02T01:02:00+09:00,0.5,�쓌,1.1,�쓌,6.5,94.5,0,0,0,6.5
2022-05-02T01:03:00+09:00,0.5,�쓌,1.1,�쓌,6.6,94.6,0,0,0,6.5
2022-05-02T01:04:00+09:00,0.6,�쓌,1.1,�쓌,6.6,94.8,0,0,0,6.5
2022-05-02T01:05:00+09:00,0.6,�쓌,1.1,�쓌,6.5,94.3,0,0,0,6.5
2022-05-02T01:06:00+09:00,0.6,�쓌,1.1,�쓌,6.5,94.3,0,0,0,6.5
2022-05-02T01:07:00+09:00,0.6,�쓌,1.1,�쓌,6.4,94.2,0,0,0,6.5
2022-05-02T01:08:00+09:00,0.7,�쓌,1.1,�쓌,6.4,94.3,0,0,0,6.5
2022-05-02T01:09:00+09:00,0.7,�쓌,1.1,�쓌,6.4,94.3,0,0,0,6.5
2022-05-02T01:10:00+09:00,0.6,���쓌,1.1,�쓌,6.4,94.3,0,0,0,6.5
2022-05-02T01:11:00+09:00,0.6,���쓌,1.1,�쓌,6.4,94.5,0,0,0,6.5
2022-05-02T01:12:00+09:00,0.6,���쓌,1.1,�쓌,6.5,94.5,0,0,0,6.5
2022-05-02T01:13:00+09:00,0.6,���쓌,1.1,�쓌,6.5,94.8,0,0,0,6.5
2022-05-02T01:14:00+09:00,0.5,���쓌,1,���쓌,6.4,94.5,0,0,0,6.5
2022-05-02T01:15:00+09:00,0.5,���쓌,1,���쓌,6.4,94.3,0,0,0,6.5
2022-05-02T01:16:00+09:00,0.5,���쓌,1,���쓌,6.5,94.4,0,0,0,6.5
2022-05-02T01:17:00+09:00,0.6,���쓌,1.1,�쓌,6.4,94.4,0,0,0,6.5
2022-05-02T01:18:00+09:00,0.6,���쓌,1.2,���쓌,6.3,94.3,0,0,0,6.5
2022-05-02T01:19:00+09:00,0.7,���쓌,1.2,���쓌,6.3,94.3,0,0,0,6.5
2022-05-02T01:20:00+09:00,0.7,���쓌,1.3,�쓌,6.3,94.3,0,0,0,6.5
2022-05-02T01:21:00+09:00,0.8,���쓌,1.3,�쓌,6.3,94.4,0,0,0,6.5
2022-05-02T01:22:00+09:00,0.9,���쓌,1.6,�쓌,6.3,94.5,0,0,0,6.5
2022-05-02T01:23:00+09:00,1,�쓌,1.6,�쓌,6.3,94.5,0,0,0,6.5
2022-05-02T01:24:00+09:00,1.1,�쓌,1.6,�쓌,6.3,94.5,0,0,0,6.5
2022-05-02T01:25:00+09:00,1.1,�쓌,1.6,�쓌,6.3,94.7,0,0,0,6.5
2022-05-02T01:26:00+09:00,1.1,�쓌,1.6,�쓌,6.3,94.8,0,0,0,6.5
2022-05-02T01:27:00+09:00,1.1,���쓌,1.6,�쓌,6.3,94.7,0,0,0,6.5
2022-05-02T01:28:00+09:00,1.1,���쓌,1.6,�쓌,6.5,95.1,0,0,0,6.5
2022-05-02T01:29:00+09:00,1,���쓌,1.6,�쓌,6.6,95.4,0,0,0,6.5
2022-05-02T01:30:00+09:00,0.9,���쓌,1.6,�쓌,6.4,95.1,0,0,0,6.5
2022-05-02T01:31:00+09:00,0.8,���쓌,1.6,�쓌,6.3,94.6,0,0,0,6.5
2022-05-02T01:32:00+09:00,0.7,���쓌,1.6,�쓌,6.3,94.6,0,0,0,6.5
2022-05-02T01:33:00+09:00,0.6,���쓌,1.6,�쓌,6.3,94.7,0,0,0,6.5
2022-05-02T01:34:00+09:00,0.6,��,1.4,���쓌,6.3,94.8,0,0,0,6.5
2022-05-02T01:35:00+09:00,0.5,��,1.1,��,6.2,94.7,0,0,0,6.5
2022-05-02T01:36:00+09:00,0.5,��,0.9,���쓌,6.2,94.6,0,0,0,6.5
2022-05-02T01:37:00+09:00,0.4,���k��,0.8,�k��,6.2,94.7,0,0,0,6.5
2022-05-02T01:38:00+09:00,0.5,���k��,0.8,�k��,6.1,94.8,0,0,0,6.5
2022-05-02T01:39:00+09:00,0.5,���k��,0.8,�k��,6.2,94.9,0,0,0,6.5
2022-05-02T01:40:00+09:00,0.5,���k��,0.8,�k��,6.1,94.9,0,0,0,6.5
2022-05-02T01:41:00+09:00,0.5,�k��,0.8,�k��,6.1,94.9,0,0,0,6.5
2022-05-02T01:42:00+09:00,0.5,�k��,0.8,�k��,6.2,95.1,0,0,0,6.5
2022-05-02T01:43:00+09:00,0.5,�k��,0.8,�k��,6.1,95.1,0,0,0,6.5
2022-05-02T01:44:00+09:00,0.5,�k��,0.8,�k��,6.1,95,0,0,0,6.5
2022-05-02T01:45:00+09:00,0.5,�k��,0.8,�k��,6.1,95.1,0,0,0,6.5
2022-05-02T01:46:00+09:00,0.4,�k��,0.8,�k��,6.1,95.1,0,0,0,6.5
2022-05-02T01:47:00+09:00,0.4,�k��,0.7,�k��,6,95,0,0,0,6.5
2022-05-02T01:48:00+09:00,0.4,�k��,0.7,�k��,6,95,0,0,0,6.5
2022-05-02T01:49:00+09:00,0.4,�k��,0.8,���k��,6,95,0,0,0,6.5
2022-05-02T01:50:00+09:00,0.4,�k��,0.8,���k��,6,95.2,0,0,0,6.5
2022-05-02T01:51:00+09:00,0.5,�k��,0.8,���k��,6,95.2,0,0,0,6.5
2022-05-02T01:52:00+09:00,0.5,���k��,0.9,��,6,95.2,0,0,0,6.5
2022-05-02T01:53:00+09:00,0.5,���k��,0.9,��,6,95.2,0,0,0,6.5
2022-05-02T01:54:00+09:00,0.5,���k��,0.9,��,6,95.2,0,0,0,6.5
2022-05-02T01:55:00+09:00,0.6,���k��,0.9,��,5.9,95.2,0,0,0,6.5
2022-05-02T01:56:00+09:00,0.6,���k��,0.9,��,5.9,95.1,0,0,0,6.5
2022-05-02T01:57:00+09:00,0.6,���k��,0.9,��,5.8,95,0,0,0,6.5
2022-05-02T01:58:00+09:00,0.6,���k��,1,�k��,5.8,95,0,0,0,6.5
2022-05-02T01:59:00+09:00,0.7,���k��,1.3,�k��,5.8,95.1,0,0,0,6.5
2022-05-02T02:00:00+09:00,0.7,���k��,1.3,�k��,5.8,95.3,0,0,0,6.5
2022-05-02T02:01:00+09:00,0.8,���k��,1.3,�k��,5.8,95.3,0,0,0,6.5
2022-05-02T02:02:00+09:00,0.8,���k��,1.3,�k��,5.8,95.3,0,0,0,6.5
2022-05-02T02:03:00+09:00,0.9,���k��,1.4,���k��,5.8,95.3,0,0,0,6.5
2022-05-02T02:04:00+09:00,0.9,���k��,1.4,���k��,5.7,95.3,0,0,0,6.5
2022-05-02T02:05:00+09:00,0.9,���k��,1.4,���k��,5.7,95.3,0,0,0,6.5
2022-05-02T02:06:00+09:00,0.9,���k��,1.4,���k��,5.8,95.4,0,0,0,6.5
2022-05-02T02:07:00+09:00,1,���k��,1.4,���k��,5.7,95.4,0,0,0,6.5
2022-05-02T02:08:00+09:00,1,���k��,1.4,���k��,5.8,95.4,0,0,0,6.5
2022-05-02T02:09:00+09:00,1,��,1.4,���k��,5.8,95.5,0,0,0,6.5
2022-05-02T02:10:00+09:00,0.9,��,1.4,���k��,5.9,95.5,0,0,0,6.5
2022-05-02T02:11:00+09:00,0.8,��,1.4,���k��,5.9,95.6,0,0,0,6.5
2022-05-02T02:12:00+09:00,0.8,��,1.4,���k��,5.9,95.6,0,0,0,6.5
2022-05-02T02:13:00+09:00,0.8,��,1.2,�쓌,5.8,95.5,0,0,0,6.5
2022-05-02T02:14:00+09:00,0.7,��,1.2,�쓌,5.8,95.4,0,0,0,6.5
2022-05-02T02:15:00+09:00,0.7,��,1.2,�쓌,5.8,95.5,0,0,0,6.5
2022-05-02T02:16:00+09:00,0.7,��,1.2,�쓌,5.8,95.6,0,0,0,6.5
2022-05-02T02:17:00+09:00,0.7,��,1.2,�쓌,5.8,95.6,0,0,0,6.5
2022-05-02T02:18:00+09:00,0.7,��,1.2,���쓌,5.9,95.7,0,0,0,6.5
2022-05-02T02:19:00+09:00,0.7,��,1.2,���쓌,5.9,95.6,0,0,0,6.5
2022-05-02T02:20:00+09:00,0.7,��,1.2,���쓌,5.8,95.6,0,0,0,6.5
2022-05-02T02:21:00+09:00,0.7,���쓌,1.2,���쓌,5.8,95.5,0,0,0,6.5
2022-05-02T02:22:00+09:00,0.7,���쓌,1.2,���쓌,5.8,95.6,0,0,0,6.5
2022-05-02T02:23:00+09:00,0.7,���쓌,1.2,���쓌,5.9,95.8,0,0,0,6.5
2022-05-02T02:24:00+09:00,0.7,���쓌,1.2,���쓌,6,95.8,0,0,0,6.5
2022-05-02T02:25:00+09:00,0.6,�쓌,1.2,���쓌,5.9,95.8,0,0,0,6.5
2022-05-02T02:26:00+09:00,0.6,�쓌,1.2,���쓌,5.8,95.6,0,0,0,6.5
2022-05-02T02:27:00+09:00,0.5,�쓌,1.1,�쓌,5.8,95.5,0,0,0,6.5
2022-05-02T02:28:00+09:00,0.5,�쓌,1.1,�쓌,5.8,95.7,0,0,0,6.5
2022-05-02T02:29:00+09:00,0.5,�쓌,1.1,�쓌,5.9,95.7,0,0,0,6.5
2022-05-02T02:30:00+09:00,0.4,�쓌,1,�쓌,6.2,96,0,0,0,6.5
2022-05-02T02:31:00+09:00,0.4,�쓌,1,�쓌,6.4,96.4,0,0,0,6.5
2022-05-02T02:32:00+09:00,0.3,�쓌,1,�쓌,6.2,96.2,0,0,0,6.5
2022-05-02T02:33:00+09:00,0.3,�쓌,1,�쓌,5.9,95.7,0,0,0,6.5
2022-05-02T02:34:00+09:00,0.3,���쓌,1,�쓌,5.8,95.4,0,0,0,6.5
2022-05-02T02:35:00+09:00,0.4,��,1.1,�k�k��,5.8,95.4,0,0,0,6.5
2022-05-02T02:36:00+09:00,0.4,��,1.1,�k�k��,5.7,95.4,0,0,0,6.5
2022-05-02T02:37:00+09:00,0.5,���k��,1.2,�k��,5.7,95.5,0,0,0,6.5
2022-05-02T02:38:00+09:00,0.5,���k��,1.2,�k��,5.6,95.5,0,0,0,6.5
2022-05-02T02:39:00+09:00,0.5,���k��,1.2,�k��,5.7,95.6,0,0,0,6.5
2022-05-02T02:40:00+09:00,0.6,�k��,1.2,�k��,5.7,95.6,0,0,0,6.5
2022-05-02T02:41:00+09:00,0.6,�k��,1.2,�k��,5.7,95.7,0,0,0,6.5
2022-05-02T02:42:00+09:00,0.7,�k��,1.2,�k��,5.8,95.8,0,0,0,6.5
2022-05-02T02:43:00+09:00,0.7,�k��,1.2,�k��,5.7,95.9,0,0,0,6.5
2022-05-02T02:44:00+09:00,0.7,�k��,1.2,�k��,5.8,95.9,0,0,0,6.5
2022-05-02T02:45:00+09:00,0.6,�k��,1.2,�k��,5.8,95.9,0,0,0,6.5
2022-05-02T02:46:00+09:00,0.6,�k��,1.2,�k��,5.8,95.9,0,0,0,6.5
2022-05-02T02:47:00+09:00,0.6,�k��,1.2,�k��,5.7,95.9,0,0,0,6.5
2022-05-02T02:48:00+09:00,0.6,�k��,1.1,�k,5.7,95.9,0,0,0,6.5
2022-05-02T02:49:00+09:00,0.6,���k��,1.1,�k,5.7,95.7,0,0,0,6.5
2022-05-02T02:50:00+09:00,0.6,���k��,1.1,�k,5.7,95.9,0,0,0,6.5
2022-05-02T02:51:00+09:00,0.6,��,1,���쓌,5.5,95.7,0,0,0,6.5
2022-05-02T02:52:00+09:00,0.6,��,1,���쓌,5.4,95.5,0,0,0,6.5
2022-05-02T02:53:00+09:00,0.6,��,1,���쓌,5.6,95.6,0,0,0,6.5
2022-05-02T02:54:00+09:00,0.6,���쓌,1,���쓌,5.7,96,0,0,0,6.5
2022-05-02T02:55:00+09:00,0.5,���쓌,1,���쓌,5.7,96,0,0,0,6.5
2022-05-02T02:56:00+09:00,0.5,���쓌,1,���쓌,5.8,96.2,0,0,0,6.5
2022-05-02T02:57:00+09:00,0.5,���쓌,1,���쓌,5.8,96.1,0,0,0,6.5
2022-05-02T02:58:00+09:00,0.5,���쓌,0.9,��,5.8,96.1,0,0,0,6.5
2022-05-02T02:59:00+09:00,0.4,���쓌,0.8,��,5.8,96.1,0,0,0,6.5
2022-05-02T03:00:00+09:00,0.4,���쓌,0.8,��,5.7,96,0,0,0,6.5
2022-05-02T03:01:00+09:00,0.4,���쓌,0.8,��,5.7,96,0,0,0,6.5
2022-05-02T03:02:00+09:00,0.3,���쓌,0.8,��,5.7,95.9,0,0,0,6.5
2022-05-02T03:03:00+09:00,0.3,���쓌,0.8,��,5.5,95.8,0,0,0,6.5
2022-05-02T03:04:00+09:00,0.4,���쓌,0.9,�쓌,5.6,95.8,0,0,0,6.5
2022-05-02T03:05:00+09:00,0.4,���쓌,0.9,�쓌,5.9,96,0,0,0,6.5
2022-05-02T03:06:00+09:00,0.4,���쓌,1,�쓌,5.7,96.3,0,0,0,6.5
2022-05-02T03:07:00+09:00,0.4,���쓌,1,�쓌,5.6,96,0,0,0,6.5
2022-05-02T03:08:00+09:00,0.4,���쓌,1,�쓌,5.7,95.9,0,0,0,6.5
2022-05-02T03:09:00+09:00,0.4,���쓌,1,�쓌,5.6,96,0,0,0,6.5
2022-05-02T03:10:00+09:00,0.4,���쓌,1,�쓌,5.6,95.9,0,0,0,6.5
2022-05-02T03:11:00+09:00,0.5,���쓌,1.2,���k��,5.5,95.9,0,0,0,6.5
2022-05-02T03:12:00+09:00,0.5,��,1.3,�k��,5.4,95.8,0,0,0,6.5
2022-05-02T03:13:00+09:00,0.6,��,1.3,�k��,5.3,95.7,0,0,0,6.5
2022-05-02T03:14:00+09:00,0.6,��,1.3,�k��,5.3,95.7,0,0,0,6.5
2022-05-02T03:15:00+09:00,0.6,��,1.3,�k��,5.4,95.8,0,0,0,6.5
2022-05-02T03:16:00+09:00,0.6,��,1.3,�k��,5.4,95.9,0,0,0,6.5
2022-05-02T03:17:00+09:00,0.6,���k��,1.3,�k��,5.3,95.9,0,0,0,6.5
2022-05-02T03:18:00+09:00,0.6,���k��,1.3,�k��,5.3,95.9,0,0,0,6.5
2022-05-02T03:19:00+09:00,0.7,���k��,1.3,�k��,5.4,96.1,0,0,0,6.5
2022-05-02T03:20:00+09:00,0.7,���k��,1.3,�k��,5.3,95.9,0,0,0,6.5
2022-05-02T03:21:00+09:00,0.7,��,1.3,�k��,5.3,95.9,0,0,0,6.5
2022-05-02T03:22:00+09:00,0.7,��,1.3,�k��,5.4,96.1,0,0,0,6.5
2022-05-02T03:23:00+09:00,0.6,��,1.2,���쓌,5.5,96.2,0,0,0,6.5
2022-05-02T03:24:00+09:00,0.6,��,1.2,���쓌,5.4,96.2,0,0,0,6.5
2022-05-02T03:25:00+09:00,0.6,��,1.2,���쓌,5.5,96.2,0,0,0,6.5
2022-05-02T03:26:00+09:00,0.6,��,1.2,���쓌,5.5,96.2,0,0,0,6.5
2022-05-02T03:27:00+09:00,0.6,���쓌,1.2,���쓌,5.6,96.2,0,0,0,6.5
2022-05-02T03:28:00+09:00,0.7,���쓌,1.2,���쓌,5.6,96.3,0,0,0,6.5
2022-05-02T03:29:00+09:00,0.7,���쓌,1.2,���쓌,5.5,96.2,0,0,0,6.5
2022-05-02T03:30:00+09:00,0.7,���쓌,1.2,���쓌,5.4,96,0,0,0,6.5
2022-05-02T03:31:00+09:00,0.8,���쓌,1.4,���쓌,5.4,96,0,0,0,6.5
2022-05-02T03:32:00+09:00,0.8,���쓌,1.4,���쓌,5.5,96.2,0,0,0,6.5
2022-05-02T03:33:00+09:00,0.8,���쓌,1.4,���쓌,5.5,96.2,0,0,0,6.5
2022-05-02T03:34:00+09:00,0.8,���쓌,1.6,��,5.5,96.2,0,0,0,6.5
2022-05-02T03:35:00+09:00,0.9,���쓌,1.6,��,5.5,96.1,0,0,0,6.5
2022-05-02T03:36:00+09:00,0.9,���쓌,1.6,��,5.6,96.2,0,0,0,6.5
2022-05-02T03:37:00+09:00,0.9,���쓌,1.6,��,5.5,96.2,0,0,0,6.5
2022-05-02T03:38:00+09:00,1,���쓌,1.6,��,5.4,96.1,0,0,0,6.5
2022-05-02T03:39:00+09:00,1,���쓌,1.6,��,5.4,96.1,0,0,0,6.5
2022-05-02T03:40:00+09:00,1.1,���쓌,1.6,��,5.4,96.1,0,0,0,6.5
2022-05-02T03:41:00+09:00,1.1,���쓌,1.6,��,5.4,96.1,0,0,0,6.5
2022-05-02T03:42:00+09:00,1.1,���쓌,1.6,��,5.4,96.1,0,0,0,6.5
2022-05-02T03:43:00+09:00,1.1,���쓌,1.6,��,5.4,96.2,0,0,0,6.5
2022-05-02T03:44:00+09:00,1,���쓌,1.6,���쓌,5.5,96.3,0,0,0,6.5
2022-05-02T03:45:00+09:00,1,���쓌,1.6,���쓌,5.5,96.3,0,0,0,6.5
2022-05-02T03:46:00+09:00,1,���쓌,1.6,���쓌,5.5,96.3,0,0,0,6.5
2022-05-02T03:47:00+09:00,1,��,1.6,���쓌,5.3,96.2,0,0,0,6.5
2022-05-02T03:48:00+09:00,1,��,1.6,���쓌,5.4,96.1,0,0,0,6.5
2022-05-02T03:49:00+09:00,1,��,1.6,���쓌,5.4,96.3,0,0,0,6.5
2022-05-02T03:50:00+09:00,1,��,1.6,���쓌,5.4,96.1,0,0,0,6.5
2022-05-02T03:51:00+09:00,1,��,1.6,���쓌,5.4,96.2,0,0,0,6.5
2022-05-02T03:52:00+09:00,1,��,1.6,���쓌,5.4,96.2,0,0,0,6.5
2022-05-02T03:53:00+09:00,1,��,1.6,���쓌,5.4,96.1,0,0,0,6.5
2022-05-02T03:54:00+09:00,1.1,���쓌,1.6,���쓌,5.4,96.2,0,0,0,6.5
2022-05-02T03:55:00+09:00,1.1,���쓌,1.6,���쓌,5.4,96.2,0,0,0,6.5
2022-05-02T03:56:00+09:00,1.2,���쓌,1.6,���쓌,5.3,96.2,0,0,0,6.5
2022-05-02T03:57:00+09:00,1.2,���쓌,1.6,���쓌,5.3,96.2,0,0,0,6.5
2022-05-02T03:58:00+09:00,1.2,���쓌,1.6,���쓌,5.4,96.2,0,0,0,6.5
2022-05-02T03:59:00+09:00,1.2,���쓌,1.6,���쓌,5.4,96.3,0,0,0,6.5
2022-05-02T04:00:00+09:00,1.2,���쓌,1.6,���쓌,5.5,96.3,0,0,0,6.5
2022-05-02T04:01:00+09:00,1.2,���쓌,1.6,���쓌,5.5,96.4,0,0,0,6.5
2022-05-02T04:02:00+09:00,1.1,���쓌,1.6,���쓌,5.5,96.4,0,0,0,6.5
2022-05-02T04:03:00+09:00,1.1,��,1.6,��,5.6,96.4,0,0,0,6.5
2022-05-02T04:04:00+09:00,1,��,1.6,��,5.6,96.5,0,0,0,6.5
2022-05-02T04:05:00+09:00,1,��,1.6,��,5.6,96.4,0,0,0,6.5
2022-05-02T04:06:00+09:00,1,��,1.6,��,5.5,96.3,0,0,0,6.5
2022-05-02T04:07:00+09:00,1,��,1.6,��,5.5,96.2,0,0,0,6.5
2022-05-02T04:08:00+09:00,1,��,1.6,��,5.6,96.2,0,0,0,6.5
2022-05-02T04:09:00+09:00,1,��,1.6,��,5.5,96.3,0,0,0,6.5
2022-05-02T04:10:00+09:00,1,��,1.6,��,5.5,96.3,0,0,0,6.5
2022-05-02T04:11:00+09:00,0.9,��,1.5,��,5.6,96.3,0,0,0,6.5
2022-05-02T04:12:00+09:00,0.9,��,1.5,��,5.6,96.4,0,0,0,6.5
2022-05-02T04:13:00+09:00,0.9,��,1.5,��,5.6,96.4,0,0,0,6.5
2022-05-02T04:14:00+09:00,0.9,��,1.5,��,5.6,96.4,0,0,0,6.5
2022-05-02T04:15:00+09:00,0.8,��,1.5,��,5.6,96.4,0,0,0,6.5
2022-05-02T04:16:00+09:00,0.8,��,1.6,���쓌,5.7,96.4,0,0,0,6.5
2022-05-02T04:17:00+09:00,0.8,��,1.6,���쓌,5.6,96.4,0,0,0,6.5
2022-05-02T04:18:00+09:00,0.8,��,1.7,��,5.6,96.3,0,0,0,6.5
2022-05-02T04:19:00+09:00,0.8,��,1.7,��,5.6,96.4,0,0,0,6.5
2022-05-02T04:20:00+09:00,0.9,��,1.7,��,5.6,96.3,0,0,0,6.5
2022-05-02T04:21:00+09:00,0.9,��,1.7,��,5.6,96.3,0,0,0,6.5
2022-05-02T04:22:00+09:00,1,��,1.7,��,5.6,96.3,0,0,0,6.5
2022-05-02T04:23:00+09:00,1,��,1.7,��,5.6,96.3,0,0,0,6.5
2022-05-02T04:24:00+09:00,1,��,1.7,��,5.6,96.3,0,0,0,6.5
2022-05-02T04:25:00+09:00,1.1,��,1.7,��,5.6,96.4,0,0,0,6.5
2022-05-02T04:26:00+09:00,1.1,��,1.7,��,5.6,96.3,0,0,0,6.5
2022-05-02T04:27:00+09:00,1,��,1.7,��,5.6,96.3,0,0,0,6.5
2022-05-02T04:28:00+09:00,1,��,2,���k��,5.6,96.4,0,0,0,6.5
2022-05-02T04:29:00+09:00,1,��,2,���k��,5.6,96.4,0,0,0,6.5
2022-05-02T04:30:00+09:00,1,��,2,���k��,5.6,96.3,0,0,0,6.5
2022-05-02T04:31:00+09:00,0.9,��,2,���k��,5.6,96.4,0,0,0,6.5
2022-05-02T04:32:00+09:00,0.9,��,2,���k��,5.6,96.3,0,0,0,6.5
2022-05-02T04:33:00+09:00,0.9,��,2,���k��,5.6,96.3,0,0,0,6.5
2022-05-02T04:34:00+09:00,0.9,��,2,���k��,5.6,96.4,0,0,0,6.5
2022-05-02T04:35:00+09:00,0.8,��,2,���k��,5.7,96.4,0,0,0,6.5
2022-05-02T04:36:00+09:00,0.8,��,2,���k��,5.6,96.4,0,0,0,6.5
2022-05-02T04:37:00+09:00,0.9,��,2,���k��,5.6,96.3,0,0,0,6.5
2022-05-02T04:38:00+09:00,0.9,��,1.6,���k��,5.7,96.4,0,0,0,6.5
2022-05-02T04:39:00+09:00,0.9,��,1.2,���쓌,5.6,96.4,0,0,0,6.5
2022-05-02T04:40:00+09:00,0.9,��,1.3,���쓌,5.6,96.4,0,0,0,6.5
2022-05-02T04:41:00+09:00,0.9,��,1.5,���쓌,5.6,96.4,0,0,0,6.5
2022-05-02T04:42:00+09:00,0.9,��,1.8,��,5.6,96.4,0,0,0,6.5
2022-05-02T04:43:00+09:00,1,��,1.8,��,5.6,96.4,0,0,0,6.5
2022-05-02T04:44:00+09:00,1,���쓌,1.8,��,5.6,96.4,0,0,0,6.5
2022-05-02T04:45:00+09:00,1,���쓌,1.8,��,5.7,96.4,0,0,0,6.5
2022-05-02T04:46:00+09:00,1,���쓌,1.8,��,5.7,96.5,0,0,0,6.5
2022-05-02T04:47:00+09:00,1,���쓌,1.8,��,5.7,96.4,0,0,0,6.5
2022-05-02T04:48:00+09:00,1,���쓌,1.8,��,5.6,96.4,0,0,0,6.5
2022-05-02T04:49:00+09:00,1,���쓌,1.8,��,5.5,96.2,0,0,0,6.5
2022-05-02T04:50:00+09:00,0.9,���쓌,1.8,��,5.6,96.3,0,0,0,6.5
2022-05-02T04:51:00+09:00,0.9,���쓌,1.8,��,5.7,96.5,0,0,0,6.5
2022-05-02T04:52:00+09:00,0.9,���쓌,1.8,���쓌,5.7,96.4,0,0,0,6.5
2022-05-02T04:53:00+09:00,0.9,���쓌,1.8,���쓌,5.5,96.4,0,0,0,6.5
2022-05-02T04:54:00+09:00,0.8,���쓌,1.8,���쓌,5.5,96.3,0,0,0,6.5
2022-05-02T04:55:00+09:00,0.8,���쓌,1.8,���쓌,5.6,96.4,0,0,0,6.5
2022-05-02T04:56:00+09:00,0.9,���쓌,1.8,���쓌,5.7,96.5,0,0,0,6.5
2022-05-02T04:57:00+09:00,0.9,���쓌,1.8,���쓌,5.6,96.5,0,0,0,6.5
2022-05-02T04:58:00+09:00,0.9,���쓌,2.4,��,5.5,96.3,0,0,0,6.5
2022-05-02T04:59:00+09:00,0.9,��,2.4,��,5.4,96.2,0,0,0,6.5
2022-05-02T05:00:00+09:00,1,��,2.4,��,5.4,96.2,0,0,0,6.5
2022-05-02T05:01:00+09:00,1.1,��,2.4,��,5.4,96.2,0,0,0,6.5
2022-05-02T05:02:00+09:00,1.1,��,2.4,��,5.5,96.3,0,0,0,6.5
2022-05-02T05:03:00+09:00,1.1,��,2.4,��,5.5,96.4,0,0,0,6.5
2022-05-02T05:04:00+09:00,1.2,��,2.4,��,5.4,96.4,0,0,0,6.5
2022-05-02T05:05:00+09:00,1.3,��,2.4,��,5.4,96.3,0,0,0,6.5
2022-05-02T05:06:00+09:00,1.4,��,2.4,��,5.4,96.3,0,0,0,6.5
2022-05-02T05:07:00+09:00,1.4,��,2.4,��,5.4,96.3,0,0,0,6.5
2022-05-02T05:08:00+09:00,1.3,��,2.2,��,5.4,96.3,0,0,0,6.5
2022-05-02T05:09:00+09:00,1.2,���쓌,2.2,��,5.4,96.3,0,0,0,6.5
2022-05-02T05:10:00+09:00,1.2,���쓌,2.2,��,5.7,96.5,0,0,0,6.5
2022-05-02T05:11:00+09:00,1.2,���쓌,2.2,��,5.7,96.7,0,0,0,6.5
2022-05-02T05:12:00+09:00,1.2,���쓌,2.2,��,5.6,96.7,0,0,0,6.5
2022-05-02T05:13:00+09:00,1.2,���쓌,2.2,��,5.5,96.5,0,0,0,6.5
2022-05-02T05:14:00+09:00,1.2,���쓌,2.2,��,5.5,96.4,0,0,0,6.5
2022-05-02T05:15:00+09:00,1.1,���쓌,2.2,��,5.6,96.4,0,0,0,6.5
2022-05-02T05:16:00+09:00,0.9,���쓌,2,���쓌,5.7,96.6,0,0,0,6.5
2022-05-02T05:17:00+09:00,0.8,���쓌,1.8,��,5.7,96.6,0,0,0,6.5
2022-05-02T05:18:00+09:00,0.8,���쓌,1.8,��,5.6,96.6,0,0,0,6.5
2022-05-02T05:19:00+09:00,0.8,���쓌,1.8,��,5.6,96.5,0,0,0,6.5
2022-05-02T05:20:00+09:00,0.9,���쓌,2.2,���쓌,5.6,96.4,0,0,0,6.5
2022-05-02T05:21:00+09:00,1,���쓌,2.2,���쓌,5.4,96.3,0,0,0,6.5
2022-05-02T05:22:00+09:00,1,���쓌,2.2,���쓌,5.4,96.2,0,0,0,6.5
2022-05-02T05:23:00+09:00,1,���쓌,2.2,���쓌,5.4,96.2,0,0,0,6.5
2022-05-02T05:24:00+09:00,0.9,���쓌,2.2,���쓌,5.4,96.3,0,0,0,6.5
2022-05-02T05:25:00+09:00,1,���쓌,2.2,���쓌,5.4,96.3,0,0,0,6.5
2022-05-02T05:26:00+09:00,1.1,���쓌,2.2,���쓌,5.4,96.3,0,0,0,6.5
2022-05-02T05:27:00+09:00,1.1,���쓌,2.2,���쓌,5.4,96.3,0,0,0,6.5
2022-05-02T05:28:00+09:00,1.1,��,2.2,���쓌,5.4,96.4,0,0,0,6.5
2022-05-02T05:29:00+09:00,1,��,2.2,���쓌,5.5,96.4,0,0,0,6.5
2022-05-02T05:30:00+09:00,1,���쓌,2.1,��,5.6,96.6,0,0,0,6.5
2022-05-02T05:31:00+09:00,1,���쓌,2,���쓌,5.5,96.6,0,0,0,6.5
2022-05-02T05:32:00+09:00,1,���쓌,2,���쓌,5.4,96.4,0,0,0,6.5
2022-05-02T05:33:00+09:00,1,���쓌,2,���쓌,5.4,96.3,0,0,0,6.5
2022-05-02T05:34:00+09:00,1.1,���쓌,2,���쓌,5.4,96.3,0,0,0,6.5
2022-05-02T05:35:00+09:00,1.1,���쓌,2,���쓌,5.4,96.4,0,0,0,6.5
2022-05-02T05:36:00+09:00,1.1,���쓌,2,���쓌,5.3,96.4,0,0,0,6.5
2022-05-02T05:37:00+09:00,1.1,���쓌,2,���쓌,5.4,96.4,0,0,0,6.5
2022-05-02T05:38:00+09:00,1.2,���쓌,2,���쓌,5.4,96.4,0,0,0,6.5
2022-05-02T05:39:00+09:00,1.3,���쓌,2,���쓌,5.4,96.5,0,0,0,6.5
2022-05-02T05:40:00+09:00,1.2,���쓌,1.8,���쓌,5.5,96.5,0,0,0,6.5
2022-05-02T05:41:00+09:00,1.2,���쓌,1.8,���쓌,5.4,96.5,0,0,0,6.5
2022-05-02T05:42:00+09:00,1.2,���쓌,1.8,���쓌,5.4,96.4,0,0,0,6.5
2022-05-02T05:43:00+09:00,1.2,���쓌,1.8,���쓌,5.4,96.4,0,0,0,6.5
2022-05-02T05:44:00+09:00,1.2,���쓌,1.8,���쓌,5.4,96.4,0,0,0,6.5
2022-05-02T05:45:00+09:00,1.2,���쓌,2.1,���쓌,5.3,96.4,0,0,0,6.5
2022-05-02T05:46:00+09:00,1.3,���쓌,2.1,���쓌,5.3,96.3,0,0,0,6.5
2022-05-02T05:47:00+09:00,1.2,���쓌,2.1,���쓌,5.4,96.4,0,0,0,6.5
2022-05-02T05:48:00+09:00,1.2,���쓌,2.1,���쓌,5.4,96.5,0,0,0,6.5
2022-05-02T05:49:00+09:00,1.1,���쓌,2.1,���쓌,5.5,96.5,0,0,0,6.5
2022-05-02T05:50:00+09:00,1.1,���쓌,2.1,���쓌,5.4,96.5,0,0,0,6.5
2022-05-02T05:51:00+09:00,1.1,���쓌,2.1,���쓌,5.5,96.5,0,0,0,6.5
2022-05-02T05:52:00+09:00,1.1,���쓌,2.1,���쓌,5.5,96.6,0,0,0,6.5
2022-05-02T05:53:00+09:00,1.1,���쓌,2.1,���쓌,5.4,96.6,0,0,0,6.5
2022-05-02T05:54:00+09:00,1.1,���쓌,2.1,���쓌,5.3,96.4,0,0,0,6.5
2022-05-02T05:55:00+09:00,1,���쓌,2.1,���쓌,5.3,96.3,0,0,0,6.5
2022-05-02T05:56:00+09:00,1,���쓌,1.7,���쓌,5.4,96.4,0,0,0,6.5
2022-05-02T05:57:00+09:00,1,���쓌,1.7,���쓌,5.3,96.4,0,0,0,6.5
2022-05-02T05:58:00+09:00,1,���쓌,1.7,���쓌,5.6,96.4,0,0,0,6.5
2022-05-02T05:59:00+09:00,0.9,���쓌,1.7,���쓌,5.8,96.7,0,0,0,6.5
2022-05-02T06:00:00+09:00,0.9,���쓌,1.7,���쓌,5.8,96.9,0,0,0,6.5
2022-05-02T06:01:00+09:00,0.9,���쓌,1.7,���쓌,5.5,96.8,0,0,0,6.5
2022-05-02T06:02:00+09:00,0.9,���쓌,1.7,���쓌,5.4,96.4,0,0,0,6.5
2022-05-02T06:03:00+09:00,0.9,���쓌,1.6,��,5.4,96.4,0,0,0,6.5
2022-05-02T06:04:00+09:00,0.9,���쓌,1.6,��,5.4,96.3,0,0,0,6.5
2022-05-02T06:05:00+09:00,0.9,���쓌,1.6,��,5.3,96.3,0,0,0,6.5
2022-05-02T06:06:00+09:00,0.9,���쓌,1.6,��,5.4,96.3,0,0,0,6.5
2022-05-02T06:07:00+09:00,1,���쓌,1.6,��,5.5,96.4,0,0,0,6.5
2022-05-02T06:08:00+09:00,1,���쓌,1.6,��,5.6,96.6,0,0,0,6.5
2022-05-02T06:09:00+09:00,1.1,���쓌,1.6,��,5.6,96.7,0,0,0,6.5
2022-05-02T06:10:00+09:00,1,���쓌,1.6,��,5.6,96.6,0,0,0,6.5
2022-05-02T06:11:00+09:00,1,���쓌,1.6,��,5.6,96.7,0,0,0,6.5
2022-05-02T06:12:00+09:00,0.9,���쓌,1.6,��,5.9,96.7,0,0,0,6.5
2022-05-02T06:13:00+09:00,0.8,���쓌,1.5,���쓌,5.8,96.8,0,0,0,6.5
2022-05-02T06:14:00+09:00,0.8,���쓌,1.5,���쓌,5.5,96.6,0,0,0,6.5
2022-05-02T06:15:00+09:00,0.8,���쓌,1.4,���쓌,5.5,96.4,0,0,0,6.5
2022-05-02T06:16:00+09:00,0.8,���쓌,1.5,���쓌,5.5,96.4,0,0,0,6.5
2022-05-02T06:17:00+09:00,0.7,���쓌,1.5,���쓌,5.6,96.4,0,0,0,6.5
2022-05-02T06:18:00+09:00,0.8,���쓌,1.5,���쓌,5.5,96.5,0,0,0,6.5
2022-05-02T06:19:00+09:00,0.7,���쓌,1.5,���쓌,5.7,96.5,0,0,0,6.5
2022-05-02T06:20:00+09:00,0.7,���쓌,1.5,���쓌,5.5,96.5,0,0,0,6.5
2022-05-02T06:21:00+09:00,0.8,��,1.8,��,5.5,96.5,0,0,0,6.5
2022-05-02T06:22:00+09:00,0.9,��,1.8,��,5.6,96.5,0,0,0,6.5
2022-05-02T06:23:00+09:00,0.9,��,1.8,��,5.6,96.6,0,0,0,6.5
2022-05-02T06:24:00+09:00,0.9,��,1.8,��,5.6,96.6,0,0,0,6.5
2022-05-02T06:25:00+09:00,0.9,��,1.8,��,5.6,96.5,0,0,0,6.5
2022-05-02T06:26:00+09:00,0.9,��,1.8,��,5.7,96.6,0,0,0,6.5
2022-05-02T06:27:00+09:00,1,��,1.8,��,5.6,96.6,0,0,0,6.5
2022-05-02T06:28:00+09:00,1,��,1.8,��,5.5,96.4,0,0,0,6.5
2022-05-02T06:29:00+09:00,1,��,1.8,��,5.5,96.4,0,0,0,6.5
2022-05-02T06:30:00+09:00,1,��,1.8,��,5.5,96.3,0,0,0,6.5